Regional Weather Roundup
Issued by NWS

Home | Current Version | Previous Version | Text Only | Print | Product List | Glossary Off
Versions: 1 2 3 4 5 6 7 8 9 10 11 12 13 14 15 16 17 18 19 20 21 22 23 24 25 26 27 28 29 30 31 32 33 34 35 36 37 38 39 40 41 42 43 44 45 46 47 48 49 50

687
ASUS43 KFSD 250002
RWRSD

WEATHER ROUNDUP FOR SOUTH DAKOTA
NATIONAL WEATHER SERVICE SIOUX FALLS SD
700 PM CDT TUE MAY 24 2016

NOTE: "FAIR" INDICATES FEW OR NO CLOUDS BELOW 12,000 FEET WITH NO
SIGNIFICANT WEATHER AND/OR OBSTRUCTIONS TO VISIBILITY.


SDZ001>005-009-010-012>017-250100-
NORTHWEST AND NORTH CENTRAL SOUTH DAKOTA

CITY           SKY/WX    TMP DP  RH WIND       PRES   REMARKS
BUFFALO          N/A     73  41  31 SE18      29.75F
FAITH            N/A     70  46  42 E7        29.82F
MOBRIDGE       SUNNY     79  46  31 SE3       29.80F
$$

SDZ012>016-024>037-041>051-057-063-072>074-250100-
SOUTHWEST AND SOUTH CENTRAL SOUTH DAKOTA

CITY           SKY/WX    TMP DP  RH WIND       PRES   REMARKS
RAPID CTY ARPT LGT RAIN  61  50  67 W10       29.88R
PIERRE         SUNNY     77  51  40 E6        29.78F
CUSTER         RAIN      48  44  86 W7        29.99R FOG
PHILIP         LGT RAIN  63  54  72 N16       29.78F
PINE RIDGE     CLOUDY    78  44  29 S18G24    29.75F
WINNER         FAIR      81  51  35 E14       29.79F
$$

SDZ004>011-016>023-039-040-250100-
NORTHEAST SOUTH DAKOTA

CITY           SKY/WX    TMP DP  RH WIND       PRES   REMARKS
ABERDEEN       SUNNY     83  46  27 N7        29.82F
WATERTOWN      SUNNY     82  48  30 S3        29.85F
BROOKINGS      SUNNY     83  40  21 CALM      29.85F
SISSETON         N/A     84  42  22 NW6       29.82S
$$

SDZ017-020-022-023-036>040-048>070-250100-
SOUTHEAST SOUTH DAKOTA

CITY           SKY/WX    TMP DP  RH WIND       PRES   REMARKS
SIOUX FALLS    MOSUNNY   81  52  36 E6        29.84F
HURON          SUNNY     82  49  31 E6        29.81F
MITCHELL       SUNNY     82  55  39 E8        29.82F
YANKTON        SUNNY     82  57  42 E10       29.80F
$$

ABBREVIATIONS USED IN REMARKS
   TC - TEMPERATURE IN CELSIUS
  WCI - WIND CHILL INDEX
   HX - HEAT INDEX
  VSB - VISIBILITY





USA.gov is the U.S. government's official web portal to all federal, state and local government web resources and services.